Weather in Khilgana

Russia / Republic of Buryatia     53°54′58″N   110°05′28″E
temp.,
°C
wind,
m/s
gust,
m/s
humid.,
%
clouds,
%
prec.,
mm/h
press.,
hPa
HPBL,
m
13 june, sun
sun1323:00+10nw214680 0.0 100917
02:00+9n224684 0.0 100918
05:00+9nne2260100 0.0 100835
08:00+13ne3453100 0.0 1007427
11:00+14e2253100 0.0 1005726
14:00+11sw1277100 0.4 1005280
17:00+11wsw1272100 0.1 1006403
20:00+10wnw227257 0.1 1006162
14 june, mon
mon1423:00+6wnw32795 0.0 100837
02:00+5wnw22825 0.0 100831
05:00+5w228415 0.0 100831
08:00+10sse126523 0.0 1007738
11:00+11s3367100 0.1 1006871
14:00+13s235772 0.3 10051220
17:00+15sw134736 0.4 10041610
20:00+12wnw335954 0.4 1004173
15 june, tue
tue1523:00+7wnw337553 0.0 100740
02:00+6wnw227926 0.0 100730
05:00+6w228392 0.0 100833
08:00+8sw2378100 0.6 1008819
11:00+7sw248194 1.0 1010686
14:00+10wnw345114 1.1 10091573
17:00+9nw47427 0.0 10101565
20:00+7wnw34565 0.0 1011556
16 june, wed
wed1623:00+3wnw33723 0.0 101353
02:00+2wnw337659 0.0 101239
05:00+2wnw3377100 0.0 101268
08:00+6w1362100 0.1 1010812
11:00+8nw2356100 0.1 10091217
14:00+8nnw2262100 0.2 10101017
17:00+7n3371100 0.0 1011805
20:00+6nnw127669 0.1 1012377
17 june, thu
thu1723:00+3w229177 0.0 101354
02:00+2w229462 0.0 101332
05:00+3wnw119412 0.0 101324
08:00+7ese117560 0.0 1011548
11:00+10ese126887 0.0 1010753
14:00+14ne135552 0.0 10081234
17:00+15nnw1349100 0.0 10061218
20:00+11nw3464100 0.0 1006150